Change the Weather History Date:

Tuesday, October 9, 2012

  Actual Average Record
Temperature  
Mean Temperature 47 °F 53 °F  
Max Temperature 60 °F 65 °F 86 °F (1938)
Min Temperature 34 °F 42 °F 23 °F (2000)
Degree Days  
Heating Degree Days 18 12  
Month to date heating degree days 159 99  
Since 1 July heating degree days 377 256  
Cooling Degree Days 0 0  
Month to date cooling degree days 0 8  
Year to date cooling degree days 1044 748  
Moisture  
Dew Point 37 °F    
Average Humidity 72    
Maximum Humidity 100    
Minimum Humidity 44    
Precipitation  
Precipitation 0.12 in 0.09 in 1.54 in (1985)
Month to date precipitation 0.12 0.84  
Year to date precipitation 17.78 29.30  
Sea Level Pressure  
Sea Level Pressure 29.89 in    
Wind  
Wind Speed 12 mph (WSW)    
Max Wind Speed 26 mph    
Max Gust Speed 32 mph    
Visibility 10 miles    
Events Rain    
T = Trace of Precipitation, MM = Missing Value Source: NWS Daily Summary

Daily Weather History Graph

Daily Weather History Graph

Search for Another Location

Airport or City:

Trip Planner

Search our weather history database for the weather conditions in past years. The results will help you decide how hot, cold, wet, or windy it might be!

Date:

Astronomy

Oct. 09, 2012 Rise Set
Actual Time 7:13 AM CDT 6:34 PM CDT
Civil Twilight 6:45 AM CDT 7:02 PM CDT
Nautical Twilight 6:12 AM CDT 7:34 PM CDT
Astronomical Twilight 5:40 AM CDT 8:06 PM CDT
Moon 12:44 AM CDT (10/9) 3:06 PM CDT (10/9)
Length of Visible Light 12h 16m
Length of Day
11h 21m
Last Quarter, 36% of the Moon is Illuminated
Oct 9
Last Quarter
Oct 15
New
Oct 21
First Quarter
Oct 29
Full
Nov 6
Last Quarter

Hourly Weather History & Observations

Time (CDT) Temp. Windchill Dew Point Humidity Pressure Visibility Wind Dir Wind Speed Gust Speed Precip Events Conditions
12:52 AM 50.0 °F - 33.1 °F 52% 29.87 in 10.0 mi South 18.4 mph 25.3 mph N/A   Partly Cloudy
1:52 AM 48.9 °F - 34.0 °F 56% 29.88 in 10.0 mi South 12.7 mph 21.9 mph N/A   Overcast
2:52 AM 48.2 °F - 33.8 °F 58% 29.87 in 10.0 mi SSW 12.7 mph - N/A   Mostly Cloudy
3:52 AM 45.0 °F 41.2 °F 34.0 °F 65% 29.86 in 10.0 mi South 6.9 mph - N/A   Clear
4:52 AM 45.0 °F 40.1 °F 35.1 °F 68% 29.86 in 10.0 mi South 9.2 mph - N/A   Clear
5:52 AM 44.6 °F 37.4 °F 35.6 °F 71% 29.83 in 10.0 mi South 16.1 mph - N/A   Mostly Cloudy
6:52 AM 46.0 °F 39.9 °F 36.0 °F 68% 29.84 in 10.0 mi South 13.8 mph - N/A   Mostly Cloudy
7:52 AM 46.0 °F 41.0 °F 36.0 °F 68% 29.85 in 10.0 mi South 10.4 mph - N/A   Partly Cloudy
8:52 AM 46.9 °F - 37.0 °F 68% 29.85 in 10.0 mi South 11.5 mph - N/A   Partly Cloudy
9:52 AM 51.1 °F - 37.9 °F 61% 29.85 in 10.0 mi SW 11.5 mph 19.6 mph N/A   Clear
10:52 AM 55.9 °F - 37.0 °F 49% 29.85 in 10.0 mi West 15.0 mph 23.0 mph N/A   Clear
11:52 AM 57.0 °F - 37.0 °F 47% 29.83 in 10.0 mi WSW 10.4 mph - N/A   Clear
12:52 PM 59.0 °F - 37.9 °F 46% 29.83 in 10.0 mi West 9.2 mph - N/A   Clear
1:52 PM 57.0 °F - 39.9 °F 53% 29.83 in 10.0 mi NW 13.8 mph - N/A   Overcast
2:52 PM 48.9 °F - 39.9 °F 71% 29.88 in 10.0 mi NNW 19.6 mph 27.6 mph N/A   Overcast
3:52 PM 46.0 °F 38.5 °F 39.0 °F 76% 29.92 in 10.0 mi NW 19.6 mph 24.2 mph N/A   Mostly Cloudy
4:09 PM 44.6 °F 37.4 °F 41.0 °F 87% 29.90 in 6.0 mi NW 16.1 mph - 0.00 in Rain Light Rain
4:52 PM 42.1 °F 34.9 °F 42.1 °F 100% 29.93 in 4.0 mi NW 13.8 mph 24.2 mph 0.05 in Rain Rain
5:52 PM 42.1 °F 38.4 °F 41.0 °F 96% 29.93 in 10.0 mi West 5.8 mph - 0.06 in   Overcast
6:52 PM 42.1 °F 37.7 °F 41.0 °F 96% 29.93 in 10.0 mi West 6.9 mph - 0.01 in   Overcast
7:52 PM 41.0 °F 35.2 °F 41.0 °F 100% 29.95 in 10.0 mi West 9.2 mph - N/A   Scattered Clouds
8:52 PM 41.0 °F 33.5 °F 39.9 °F 96% 29.97 in 10.0 mi West 13.8 mph - N/A   Partly Cloudy
9:52 PM 37.9 °F 30.9 °F 37.0 °F 97% 29.99 in 10.0 mi West 10.4 mph - N/A   Clear
10:52 PM 37.9 °F 29.2 °F 34.0 °F 86% 30.01 in 10.0 mi NW 15.0 mph - N/A   Clear
11:52 PM 37.0 °F 28.9 °F 32.0 °F 82% 30.03 in 10.0 mi NW 12.7 mph - N/A   Partly Cloudy